Location: Mascot Post Office (historical)
(40.2645°N, 99.5462°W)
Time: 00:14:57
(UTC+00:00)

NOSS 3-4 (C) - Pass Details

Date: 25 October 2020
Orbit: 884 x 1328 km, 63.4° (Epoch: 28 November)

Event Time Altitude Azimuth Distance (km) Brightness Sun altitude
Rises 01:06:33 0° 330° (NNW) 3,748 6.9 -16.2°
Reaches altitude 10° 01:10:17 10° 351° (N) 2,882 6.0 -17.0°
Maximum altitude 01:14:26 16° 29° (NNE) 2,528 5.4 -17.8°
Enters shadow 01:16:09 15° 46° (NE) 2,644 5.3 -18.1°
